Location: Ailingen
(47.6833°N, 9.5000°E)
Time: 05:50:19
(UTC+00:00)

Cosmos 2151 Rocket - Pass Details

Date: 18 November 2025
Orbit: 612 x 635 km, 82.5° (Epoch: 04 December)

Event Time Altitude Azimuth Distance (km) Brightness Sun altitude
Rises 17:53:35 0° 199° (SSW) 2,916 7.3 -21.9°
Reaches altitude 10° 17:55:50 10° 203° (SSW) 2,015 6.5 -22.3°
Maximum altitude 18:00:15 57° 283° (WNW) 753 4.2 -23.0°
Drops below altitude 10° 18:04:42 10° 2° (N) 2,034 6.1 -23.8°
Enters shadow 18:05:03 - 3° (N) 2,175 6.3 -23.8°
